RH
21 21 20 18 17 16 15 15 15 14 14 14 14 14 14 13 13 13 13 13 13 15 16 17 20 21 23 25 27 29 30 31 32 32 33 33 33 34 35 35 36 36 35 34 34 36 36 35 35 34 34 33 31 30 28 26 25 25 25 25 25 23 22 22 21 19 18 17 17 16 15 14 13 13 13 13 12 12 12 12 12 12 12 12 12
21 20 19 18 17 16 16 15 14 14 14 14 14 14 15 15 15 15 14 14 13 13 13 12 13 13 14 15 16 17 19 20 22 24 25 26 28 29 30 30 30 31 30 29 29 30 30 29 29 29 29 28 26 25 23 23 23 23 23 23 22 20 19 18 17 16 15 15 14 13 13 12 12 12 11 11 11 11 10 10 10 10 10 10 10
19 18 18 17 17 16 15 14 14 13 13 13 12 13 13 13 14 15 15 15 15 15 15 15 14 14 14 13 14 13 13 13 13 14 15 16 18 19 21 22 24 25 26 27 27 27 28 27 27 27 26 26 25 24 23 23 23 23 22 21 20 19 18 18 18 17 15 15 15 14 14 13 13 13 13 13 12 11 10 10 9 9 9 9 9
18 17 16 16 16 15 15 14 13 12 12 11 11 11 10 11 11 11 12 13 13 14 14 15 15 15 15 14 15 14 14 14 13 12 12 12 12 12 13 13 14 15 17 18 20 21 22 23 23 24 23 24 24 23 24 24 25 25 24 23 22 21 21 20 20 18 17 17 17 16 14 14 15 14 14 13 12 11 10 10 10 9 9 9 8
17 16 16 16 15 15 14 14 13 12 12 11 10 10 9 9 9 8 9 9 9 10 11 12 12 12 13 13 13 13 14 13 13 13 12 12 12 12 12 12 11 11 11 12 11 12 13 14 15 15 14 15 15 15 16 17 17 18 19 19 18 18 17 16 16 15 14 14 13 12 11 12 12 12 11 11 10 10 9 9 9 8 8 8 7
15 14 13 13 12 12 12 12 13 12 12 11 10 9 8 8 7 7 7 7 7 7 8 9 9 10 10 10 11 11 11 11 12 12 11 11 11 11 12 12 12 11 11 11 10 9 9 11 11 11 11 10 9 9 9 9 10 10 10 10 10 10 9 9 9 9 9 9 8 8 8 8 8 8 8 8 7 7 7 7 7 6 6 6 6
15 14 13 12 11 11 11 11 11 11 10 10 10 9 9 8 7 7 6 6 6 6 6 7 7 8 8 9 9 9 9 9 10 10 10 10 10 10 10 10 11 11 12 11 11 10 9 10 10 10 10 10 9 9 9 9 9 8 8 8 8 7 7 7 6 6 6 6 6 6 6 5 5 5 5 5 5 5 5 5 5 5 5 5 5
16 15 14 14 14 13 12 11 10 10 9 9 9 8 8 8 7 7 6 5 5 5 5 5 5 6 7 8 8 8 8 7 8 8 8 9 9 9 9 9 10 10 11 11 11 11 10 11 10 10 10 9 9 9 9 9 8 9 9 8 8 7 7 7 6 6 6 6 6 5 5 4 4 4 4 5 4 4 4 4 4 4 4 4 4
16 15 14 14 14 13 11 10 10 9 9 8 7 7 6 6 6 6 5 5 5 4 5 4 4 5 5 6 6 7 7 7 7 7 7 8 7 8 8 8 9 9 9 9 10 10 10 11 10 10 10 9 9 9 8 9 8 9 9 9 9 8 8 7 6 7 6 6 6 5 5 5 5 4 4 5 4 4 4 4 4 4 4 4 4
13 12 12 11 10 9 8 8 8 7 8 7 6 5 5 5 5 5 5 4 4 4 4 4 4 4 4 4 5 6 6 6 7 7 6 7 6 7 7 7 7 8 8 8 8 9 9 10 10 10 10 10 10 9 9 9 8 8 9 9 9 9 9 8 8 8 7 7 6 6 6 5 5 5 5 5 5 5 4 4 5 4 4 4 4
10 9 9 8 7 7 6 5 6 5 6 5 5 5 4 4 4 4 4 4 4 4 4 4 4 4 4 4 4 4 5 5 6 6 6 6 6 6 6 6 6 6 7 7 7 8 8 8 9 9 9 9 9 9 9 8 8 8 8 8 9 9 9 9 9 9 9 9 8 8 7 6 6 6 5 6 6 5 5 5 5 5 4 4 4
7 6 6 6 5 5 5 5 5 5 5 4 4 4 4 4 4 4 4 4 4 4 3 4 3 3 3 3 3 3 4 4 4 5 5 6 6 6 6 6 6 6 6 6 7 7 7 7 8 8 8 8 8 8 8 8 8 8 8 8 8 9 9 9 9 9 9 9 9 9 9 8 8 7 7 7 7 7 7 6 7 6 6 5 5
5 5 5 4 4 4 4 4 4 4 4 4 4 4 4 4 3 4 4 4 4 3 3 3 3 3 3 3 3 3 3 3 4 4 4 5 5 5 5 5 5 6 5 6 6 6 6 6 6 7 7 7 7 7 7 7 7 7 7 8 8 8 8 9 9 9 10 10 10 10 10 9 9 8 8 8 8 8 8 8 8 8 7 6 5
4 4 3 3 3 3 3 3 3 3 4 4 4 4 3 3 3 3 3 4 3 3 3 3 3 3 3 3 3 3 3 3 3 3 3 4 4 4 5 5 5 5 5 5 5 5 5 5 6 6 6 6 6 6 6 6 7 7 7 7 8 8 8 8 9 9 10 10 11 10 10 10 10 9 9 8 9 8 9 9 9 9 9 7 7
3 3 3 2 2 2 2 2 2 3 3 3 3 3 3 3 3 3 3 3 3 3 3 3 3 3 3 3 3 3 3 3 3 3 3 4 4 4 4 4 5 5 5 5 5 5 5 5 5 5 5 5 5 5 6 6 6 6 6 7 7 7 7 8 8 9 9 10 10 10 11 11 10 10 10 9 9 9 9 9 9 10 10 9 8
3 2 2 2 2 2 2 2 2 2 2 2 3 2 3 3 3 3 3 2 3 3 3 3 3 3 3 3 3 3 3 3 3 3 3 3 3 4 4 4 4 4 5 5 5 5 4 4 5 4 5 5 5 5 5 5 6 6 6 6 7 7 7 7 7 8 9 9 10 10 10 11 10 10 10 10 10 10 10 10 10 10 10 10 9
2 3 2 2 2 2 2 2 2 2 2 2 2 2 2 2 3 3 3 3 2 2 3 2 3 3 3 3 3 3 3 3 3 3 3 3 3 3 4 4 4 4 4 4 4 4 4 4 4 4 4 4 4 5 4 5 5 5 6 6 6 7 7 7 7 7 8 8 9 9 9 10 10 10 10 10 10 10 10 10 10 10 10 10 10
2 3 2 2 2 2 2 2 2 2 2 2 2 2 2 2 2 2 2 3 2 2 3 2 3 3 3 3 3 3 3 2 3 3 3 3 3 3 3 3 4 4 4 4 4 4 4 4 4 4 4 4 4 4 4 5 5 5 5 5 6 6 6 6 6 6 7 7 8 8 8 9 9 10 10 10 10 10 10 10 10 10 10 10 10
2 3 2 2 2 2 2 2 2 2 2 2 2 2 2 2 2 2 2 2 2 2 3 2 3 3 3 3 3 3 3 2 3 3 3 3 3 3 3 3 3 3 3 3 4 4 3 4 4 4 4 4 4 4 4 4 4 5 5 5 5 5 5 6 5 6 6 6 7 7 7 8 8 9 9 9 9 9 9 9 9 10 10 10 10
2 2 2 2 2 2 2 2 2 2 2 2 2 2 2 2 2 2 2 2 2 2 3 2 3 3 3 3 3 3 3 2 3 2 3 3 3 3 2 2 3 2 3 3 3 3 3 3 3 3 4 4 4 4 4 4 4 4 4 4 5 4 5 5 5 5 5 5 6 6 6 7 7 8 8 8 8 8 9 9 9 9 9 9 9
2 3 2 2 2 2 3 2 2 3 2 2 2 2 2 2 2 2 2 2 2 2 3 3 3 3 3 3 3 3 3 3 3 2 3 3 2 3 3 3 3 2 3 3 3 3 3 3 3 3 3 3 3 3 3 3 3 3 4 4 4 4 4 4 4 4 5 5 5 5 5 6 6 7 7 7 7 7 8 8 8 8 8 8 8
2 2 2 2 2 2 2 2 2 3 2 2 2 2 2 2 2 2 2 2 2 2 2 3 3 3 3 3 3 3 3 3 3 3 3 3 3 3 3 3 3 3 3 3 3 3 3 3 3 3 3 3 3 3 3 3 3 3 3 3 3 3 3 3 3 3 4 4 4 4 5 5 5 6 6 6 6 7 8 8 8 8 7 8 8
2 2 2 2 2 2 2 2 2 2 2 2 2 2 2 2 2 2 2 2 2 2 2 2 3 3 3 3 3 3 3 3 3 3 3 3 3 3 3 3 3 3 3 3 3 3 3 3 3 3 3 3 3 3 3 3 3 3 3 3 3 3 3 3 3 3 3 3 4 4 4 4 4 5 5 5 5 6 7 7 7 8 7 7 8
2 2 2 2 2 2 2 2 2 2 2 2 2 2 2 2 2 2 2 2 2 2 2 2 2 2 3 3 3 3 3 3 3 3 3 3 3 3 3 3 3 3 3 3 3 3 3 3 3 3 3 3 3 3 3 3 3 3 3 3 3 3 3 3 3 4 3 3 4 3 3 4 4 4 5 5 5 5 6 6 7 7 7 7 8
3 2 2 2 2 2 2 2 2 2 2 2 2 3 2 2 2 2 2 2 2 2 2 2 2 2 2 2 2 3 3 3 3 3 3 3 3 3 3 3 3 3 3 2 3 3 3 3 2 3 3 3 3 3 3 3 3 3 3 3 3 3 3 3 3 3 3 3 4 4 4 4 3 4 4 4 5 5 5 6 6 6 7 7 8
2 2 2 2 2 2 2 2 2 2 2 2 2 2 2 2 2 2 2 2 2 3 3 3 2 2 3 2 2 3 2 3 3 3 3 3 2 2 2 2 2 2 3 3 3 2 2 2 2 3 3 3 3 3 3 3 2 3 3 2 3 3 3 3 3 3 4 3 4 4 4 4 3 4 4 4 4 4 4 4 5 5 6 6 7
2 2 2 2 2 2 2 2 2 2 2 2 3 2 2 3 2 2 3 2 2 3 2 3 3 3 3 3 3 3 3 3 3 3 3 3 3 3 2 2 2 2 2 2 2 2 2 2 2 3 3 2 3 2 2 3 2 2 3 3 3 3 2 3 3 3 3 3 3 4 4 3 3 3 4 3 3 3 3 3 4 4 4 5 5
2 2 2 2 2 2 2 2 2 2 2 2 2 2 2 3 3 3 3 2 3 3 3 3 3 3 3 3 3 3 3 3 3 3 3 3 3 3 2 2 2 2 3 2 2 2 2 3 3 3 3 2 2 3 2 3 3 2 3 2 2 3 2 2 3 3 3 3 3 3 3 3 3 3 3 3 3 3 3 3 3 3 3 4 4
2 3 3 2 2 2 2 2 2 2 3 2 2 3 3 3 3 3 3 3 3 3 3 3 3 3 4 3 3 3 3 3 3 3 3 3 3 3 3 3 3 2 3 2 2 3 2 3 3 3 3 3 2 3 3 3 3 3 3 3 2 3 2 2 3 3 3 3 3 3 3 3 3 3 3 3 3 3 3 3 3 3 3 4 3
2 2 3 2 2 2 2 2 2 2 3 3 3 3 3 3 3 3 3 3 4 4 4 4 4 4 4 4 4 4 4 4 4 3 4 3 3 3 3 3 3 3 3 3 3 3 3 3 3 3 3 3 3 3 3 3 3 3 3 3 2 3 3 2 3 3 3 3 3 3 3 3 3 3 3 3 3 3 3 3 3 3 4 4 3
3 3 3 2 2 2 2 2 2 2 3 3 3 3 3 3 3 3 3 4 4 4 4 5 4 4 5 5 5 5 4 4 4 4 4 4 4 4 3 3 3 3 3 3 3 3 3 3 3 3 3 3 3 3 3 3 3 3 3 3 3 3 3 3 3 3 3 3 3 4 3 3 3 3 3 4 4 4 4 3 4 4 4 4 3
3 3 2 2 2 2 2 2 2 2 2 3 3 3 3 3 3 3 4 4 4 4 4 5 5 5 5 5 6 6 5 5 5 4 4 4 4 4 3 3 3 3 3 3 3 3 3 3 3 3 3 3 3 3 3 3 3 3 3 3 3 3 3 3 3 3 3 3 4 4 4 4 4 4 4 4 4 4 4 4 4 4 4 4 3
3 3 2 2 2 2 2 2 2 2 3 3 3 3 3 3 4 4 4 4 4 4 4 4 5 5 5 6 6 6 5 5 5 5 4 4 4 4 4 3 3 3 3 3 3 3 3 3 3 3 3 3 3 3 3 3 3 3 3 3 3 3 3 3 4 3 4 3 4 5 4 4 4 4 4 4 4 4 4 4 4 4 4 4 3
2 2 2 2 2 2 2 2 3 3 3 3 3 3 3 3 4 4 4 4 4 4 4 4 4 4 5 5 5 5 5 5 5 4 4 4 4 3 4 4 3 3 3 3 3 3 3 3 2 3 3 3 3 3 3 4 3 3 3 3 3 3 3 4 4 4 4 4 4 5 4 4 4 4 4 4 4 4 4 4 4 4 4 4 3
3 2 2 2 2 3 2 2 3 3 3 3 3 3 3 3 3 3 3 4 4 4 4 4 4 5 4 5 5 4 5 4 4 4 4 4 4 3 3 3 3 3 3 3 3 2 3 3 2 3 3 3 3 3 3 3 3 3 3 3 3 3 3 4 4 4 4 4 5 5 4 4 4 4 4 4 4 4 4 4 4 3 4 4 3
3 2 3 2 2 3 3 3 3 3 3 3 3 3 3 3 3 3 3 4 3 3 4 3 4 5 4 5 5 5 5 4 4 4 4 4 4 3 3 3 3 3 3 3 3 2 2 3 2 3 3 2 3 3 3 3 3 3 4 3 3 3 3 4 4 4 4 4 5 5 4 4 4 4 4 4 4 4 4 4 4 3 4 4 4
3 2 3 3 2 3 3 3 3 3 3 3 3 3 3 3 3 3 3 4 3 3 4 4 4 4 4 5 5 5 5 4 4 4 4 4 4 3 3 3 3 3 3 3 3 2 2 2 2 3 3 2 3 2 2 3 3 3 4 3 3 3 3 4 4 4 5 4 4 5 4 4 4 4 4 4 4 4 4 4 4 3 4 4 4
3 2 2 3 3 3 3 3 3 3 3 3 3 3 3 3 3 3 3 4 4 4 4 4 4 4 4 4 4 4 4 4 4 4 3 4 3 3 3 3 3 3 3 3 3 3 3 3 2 3 3 2 3 2 2 3 3 3 3 3 4 3 3 4 4 4 4 4 5 5 4 4 4 4 4 4 4 4 4 4 4 4 4 4 3
3 2 3 3 3 3 3 3 3 3 3 3 3 3 3 3 3 3 4 4 4 4 4 4 4 4 4 4 4 4 4 4 4 4 4 4 4 3 3 3 3 3 3 3 3 3 3 3 2 3 3 2 3 2 2 3 2 3 3 3 4 3 3 4 4 4 4 4 5 5 4 4 4 3 4 4 4 4 4 4 4 3 3 4 4
3 3 3 3 3 3 3 3 3 3 3 3 3 3 3 3 3 3 4 4 4 4 4 4 4 4 4 5 4 4 4 4 4 3 4 4 3 3 4 3 3 3 3 3 3 3 3 3 2 3 3 2 3 2 2 2 2 3 3 3 3 3 3 3 3 4 4 4 4 5 4 4 4 3 4 4 4 4 3 3 4 3 4 4 4
3 3 3 3 3 3 3 4 4 3 3 3 3 3 3 3 3 3 3 4 4 4 4 4 4 4 4 4 4 4 4 3 4 3 3 4 3 3 3 3 3 3 3 3 3 2 2 2 2 3 2 2 2 2 2 2 2 2 3 3 3 3 3 3 3 3 4 4 4 4 4 4 4 4 4 4 4 3 3 3 3 4 4 5 4
2 3 3 3 3 3 3 4 4 4 4 3 3 3 3 3 3 3 3 3 3 4 4 4 4 4 4 4 4 4 4 4 4 3 3 4 3 3 3 3 3 3 2 2 2 2 2 2 2 2 2 2 2 2 2 2 2 2 2 2 3 3 3 3 3 3 4 4 4 4 4 4 4 4 4 4 4 3 3 4 4 4 4 4 4
2 2 2 3 3 3 3 4 4 4 4 3 3 3 3 3 3 3 3 3 3 3 3 3 4 4 4 4 4 4 4 4 4 4 4 4 3 3 3 3 2 2 2 2 2 2 2 3 2 2 2 2 2 2 2 2 2 2 2 2 2 3 3 3 3 3 3 3 3 3 3 3 3 3 4 4 4 4 4 4 4 4 4 4 4
2 2 2 3 3 3 3 3 3 3 3 3 3 3 3 3 3 3 3 3 3 3 3 3 3 3 3 4 4 4 4 4 4 4 3 3 3 3 3 2 2 2 2 2 3 2 2 2 2 2 2 2 3 2 2 2 2 2 2 2 2 3 3 3 3 3 3 3 3 3 3 3 3 3 4 4 3 3 4 4 4 4 4 4 4
2 3 2 3 3 3 3 3 3 3 3 3 3 3 3 3 3 3 3 3 3 3 3 3 3 3 3 3 3 4 4 3 4 3 3 3 3 3 2 2 2 2 2 2 2 2 2 2 2 2 2 2 3 3 3 3 3 3 3 3 3 3 3 3 3 3 3 3 3 3 3 3 3 3 3 4 4 4 4 4 4 4 4 4 4
3 2 2 3 3 3 3 3 3 3 3 3 4 4 3 3 3 3 3 3 3 3 3 3 3 3 3 3 3 3 3 3 3 3 3 3 3 2 3 2 2 2 2 2 2 2 2 2 2 2 3 3 3 3 3 3 3 3 3 3 3 3 3 3 3 3 3 3 3 3 3 3 3 4 3 4 4 4 4 4 4 4 4 4 5
2 3 3 3 3 3 3 3 3 3 3 3 4 4 3 3 3 3 3 3 3 3 3 3 3 3 3 3 3 3 3 3 3 3 3 3 3 3 3 2 2 3 2 2 3 3 2 3 3 3 3 3 3 3 3 3 3 3 3 3 3 3 3 3 4 3 3 3 3 3 3 3 3 4 4 4 4 4 4 4 4 4 5 5 5
2 3 3 3 3 3 3 3 3 3 3 3 3 3 3 3 3 3 3 3 3 3 3 3 3 3 3 3 3 3 3 3 3 3 3 3 3 3 3 2 3 3 3 3 3 3 3 3 3 3 3 3 3 3 3 3 3 3 3 3 3 3 3 3 3 3 3 3 3 3 4 4 4 4 4 4 4 4 4 5 5 5 5 5 6
2 2 2 3 3 3 3 3 3 3 3 3 3 3 3 3 3 3 3 3 3 3 3 3 3 3 3 3 3 3 4 3 3 3 3 3 3 2 3 3 3 3 3 3 3 3 3 3 3 3 3 3 3 3 3 3 3 3 3 3 3 3 3 3 3 3 3 3 4 4 4 4 4 4 4 4 4 4 4 5 5 5 6 6 6
3 3 3 3 3 3 3 3 3 3 3 3 3 3 3 3 3 3 3 3 3 3 3 3 3 3 3 3 3 3 3 3 3 3 3 3 3 3 3 3 3 3 3 3 3 3 3 3 3 3 3 3 3 3 3 3 3 3 3 3 3 3 3 3 3 3 3 4 4 4 4 4 4 4 4 4 4 4 5 5 5 6 6 7 7
3 3 3 3 3 3 3 3 3 3 3 3 3 3 3 3 3 3 3 3 3 3 3 3 3 3 3 3 3 4 3 3 3 3 3 3 3 3 3 3 3 3 3 3 3 3 3 3 3 3 3 3 3 3 3 3 3 3 3 3 3 3 3 3 4 3 4 4 4 4 4 4 4 4 4 4 4 5 5 6 6 6 7 7 7
Wind_Speed
103 104 105 105 105 105 105 105 105 106 106 106 107 108 109 110 111 112 112 113 113 114 116 117 119 120 122 123 124 124 125 126 125 125 125 125 125 125 125 125 124 124 124 124 123 122 122 121 121 120 120 120 120 119 118 117 115 114 114 113 113 113 113 113 113 113 112 112 112 112 111 110 109 109 108 108 108 108 108 108 109 109 110 110 111
105 106 106 107 107 106 106 105 104 104 104 105 105 106 107 108 109 110 111 111 111 111 112 112 113 113 115 116 118 119 121 122 123 124 125 126 127 127 127 128 127 128 128 128 127 127 126 125 125 125 125 125 124 123 122 120 119 119 118 118 118 118 117 116 116 116 115 115 114 113 112 111 111 110 110 110 110 110 110 110 110 110 111 111 112
106 107 107 107 108 108 107 106 106 105 104 104 103 103 103 104 104 105 106 108 108 109 110 111 111 112 112 112 113 114 115 116 117 118 119 121 123 124 126 127 128 128 129 129 129 129 129 128 128 128 128 128 128 127 125 124 123 123 123 123 123 122 120 119 119 119 118 117 116 115 114 113 113 113 113 113 113 112 112 111 112 112 112 113 114
106 107 107 108 108 108 108 108 107 106 105 104 103 102 102 101 101 101 101 102 103 104 105 107 108 109 110 110 110 111 113 113 114 114 115 116 118 119 121 122 123 125 126 128 128 128 128 128 128 128 129 129 129 128 126 125 125 126 126 126 125 124 123 121 121 121 119 119 119 118 116 115 115 115 115 115 114 113 113 113 113 114 114 115 115
105 106 106 107 107 107 107 108 108 107 106 104 103 102 102 101 100 99 99 99 99 100 101 102 103 105 106 107 107 108 109 110 111 112 113 114 115 116 117 118 119 120 122 124 126 125 123 124 125 127 127 127 127 125 124 124 124 125 125 125 125 125 124 122 122 122 121 120 120 119 118 117 117 116 116 116 115 114 114 114 115 115 116 116 116
105 104 104 104 104 103 104 105 106 106 106 105 104 104 103 102 101 100 99 99 98 98 98 99 100 101 103 104 105 106 106 106 107 108 109 111 112 114 115 116 117 118 119 121 123 121 119 119 121 123 124 125 124 123 122 122 122 122 123 123 123 123 122 121 121 121 121 120 120 119 118 118 117 116 116 116 115 115 115 115 116 116 117 117 117
107 106 105 104 103 103 103 104 104 104 104 104 103 104 104 103 102 101 100 99 99 98 98 98 99 99 100 102 104 105 105 105 105 105 106 108 109 111 112 113 114 115 117 119 120 119 116 116 117 119 121 122 122 122 121 120 120 120 120 121 121 121 121 120 119 119 119 119 119 119 118 117 117 116 116 116 116 115 115 115 116 117 118 118 117
107 107 106 106 106 106 105 105 105 105 105 104 104 103 103 103 102 102 101 100 98 98 98 98 99 99 99 101 102 103 104 104 104 104 105 106 107 108 109 110 111 113 114 116 118 116 115 114 115 116 117 118 119 119 118 118 117 117 118 119 119 120 119 119 118 117 117 117 117 118 118 117 116 116 115 115 115 115 115 116 117 117 118 117 116
106 106 105 105 106 106 105 104 104 106 107 107 106 104 103 103 102 101 101 101 99 97 97 98 98 99 99 100 101 101 102 103 103 104 104 105 106 107 107 108 109 110 112 114 115 114 112 112 113 113 114 115 116 116 116 115 115 114 114 115 116 117 117 117 116 115 115 115 116 116 116 116 115 114 113 114 114 115 116 116 117 117 116 116 115
102 102 101 102 102 102 101 101 101 103 105 107 106 105 103 102 102 102 101 101 100 98 97 97 97 98 98 99 100 100 100 101 101 102 103 105 106 106 107 107 108 108 110 111 112 112 110 110 111 112 112 112 113 114 114 114 113 113 113 113 113 114 114 114 114 113 113 113 113 114 114 113 113 113 112 112 112 114 114 114 114 115 115 114 114
94 93 93 94 96 97 98 98 99 100 102 104 104 104 103 102 102 101 101 102 101 100 98 97 97 98 98 98 98 98 99 99 100 101 102 103 105 106 107 107 108 108 108 109 110 110 109 109 110 111 112 112 112 112 113 113 112 112 112 111 111 111 111 111 111 111 110 110 110 111 111 111 111 111 110 110 109 110 110 111 111 113 115 113 113
87 86 86 89 92 93 94 95 97 99 100 101 102 102 102 102 101 100 101 101 101 101 100 99 98 98 97 97 96 96 96 97 98 100 101 103 104 105 106 106 107 107 108 108 109 109 109 108 109 110 111 112 112 112 112 112 112 111 111 110 110 110 110 109 109 108 108 108 107 107 108 109 109 109 108 107 107 107 107 108 108 110 112 112 112
82 82 85 88 90 90 89 91 93 95 97 98 99 100 100 100 99 98 98 100 100 100 99 98 98 98 97 95 95 95 94 95 96 97 99 101 103 104 105 106 106 106 107 107 108 109 108 108 109 110 111 112 112 112 112 112 112 111 109 109 108 108 109 108 107 107 106 106 106 106 106 107 107 107 107 106 105 105 105 105 105 106 108 110 110
80 81 84 86 87 86 86 87 88 89 90 92 94 96 96 96 96 95 95 96 98 98 98 97 97 96 95 94 93 93 93 93 94 95 97 99 100 102 103 104 105 106 106 107 107 108 108 108 108 110 111 112 113 113 112 112 111 110 109 108 108 108 107 107 106 106 105 104 105 105 105 106 106 106 106 105 104 104 104 104 103 104 106 107 107
80 81 81 82 81 81 81 81 81 81 82 84 86 88 90 91 92 92 92 92 93 94 95 96 96 95 94 93 92 92 91 91 91 92 94 96 98 99 101 102 103 104 106 107 108 108 107 107 108 109 110 112 112 112 112 112 111 110 109 108 108 108 107 107 107 106 105 104 104 104 105 105 105 105 105 104 104 103 103 103 102 102 104 105 105
78 79 79 78 77 76 75 75 74 74 74 75 77 79 81 83 86 87 88 88 88 89 90 92 93 93 92 91 91 91 91 90 89 89 90 92 94 96 98 100 102 103 104 106 107 107 107 107 107 107 108 109 110 111 111 110 109 108 108 108 107 108 108 108 108 107 106 105 105 105 105 105 105 105 105 104 104 104 103 103 102 102 103 104 104
75 76 76 76 75 74 72 71 71 70 69 70 71 71 72 74 77 79 81 83 84 84 85 86 87 89 89 89 89 89 89 88 87 87 87 87 89 91 94 96 98 100 102 103 104 105 104 104 104 104 104 105 106 108 108 108 108 107 107 107 107 107 108 109 109 108 107 106 106 106 106 106 106 106 106 105 105 105 104 103 103 103 104 104 104
72 73 73 73 72 71 69 68 66 66 65 66 67 67 68 68 69 72 74 75 77 78 80 80 82 84 84 85 86 86 86 86 85 85 85 85 85 86 88 90 93 95 97 99 100 101 101 100 100 100 101 101 102 103 104 105 105 106 106 107 107 107 108 109 109 109 108 108 108 108 108 107 107 107 107 107 106 106 105 105 104 104 105 104 104
69 70 70 70 69 67 66 64 63 62 62 62 63 64 65 64 65 66 67 69 70 71 73 74 76 78 79 80 81 82 83 83 83 82 83 83 83 83 83 84 86 88 89 91 93 94 95 94 94 95 97 98 99 99 100 102 103 104 105 106 106 107 108 109 109 108 109 109 109 109 109 108 107 107 108 108 107 106 106 105 105 105 105 105 105
67 67 67 67 66 64 63 61 60 60 59 60 60 61 61 61 61 61 62 64 65 66 67 68 70 72 73 75 76 77 78 79 79 79 79 80 81 82 82 81 81 81 82 83 84 86 87 88 88 89 91 93 95 96 97 99 100 102 103 104 104 105 107 108 107 107 108 109 109 109 109 108 107 107 108 108 107 106 106 106 106 106 106 106 106
66 66 65 64 63 61 60 59 58 57 57 57 58 59 59 59 59 59 59 60 61 63 64 65 66 67 68 70 71 72 73 74 75 76 76 77 78 79 80 80 80 80 80 80 81 82 82 82 82 83 85 86 89 91 93 95 96 98 99 101 102 102 104 105 105 105 106 107 107 107 108 108 107 107 108 107 106 106 106 107 107 107 107 107 106
63 64 63 61 59 58 57 57 55 55 54 55 55 56 57 57 57 57 58 58 59 60 60 62 63 64 65 66 67 68 69 69 71 72 73 74 75 76 77 78 79 80 80 81 81 82 81 80 80 81 81 82 84 86 88 90 92 92 94 96 97 98 100 101 101 100 102 104 105 105 105 105 104 105 106 105 104 104 105 106 107 107 108 107 107
62 62 61 59 56 54 54 54 53 52 52 52 53 54 54 54 54 54 55 56 57 57 58 58 59 60 61 62 63 64 64 65 66 67 69 70 72 74 75 76 77 78 78 78 79 80 80 80 79 79 80 80 82 83 85 86 87 88 88 89 91 92 94 95 95 95 95 96 98 100 100 99 99 100 102 101 100 100 102 105 106 107 107 106 106
60 60 60 58 55 52 50 51 51 50 49 49 50 52 53 53 53 52 53 53 54 55 55 55 56 57 58 59 60 61 62 63 63 64 66 67 68 70 72 74 75 75 76 76 77 77 77 77 76 76 77 78 79 80 81 82 82 83 84 85 85 86 87 88 90 91 90 90 91 92 92 90 89 90 93 94 94 95 97 100 103 104 104 103 104
57 58 58 56 54 51 48 48 48 48 48 48 48 50 51 52 52 52 52 51 51 52 52 53 53 54 55 56 57 58 59 61 61 63 64 65 66 67 69 70 71 72 74 74 74 74 74 74 73 73 74 74 75 77 78 78 78 79 80 81 81 82 82 83 84 85 85 85 86 86 86 84 81 80 83 86 88 89 91 93 95 97 98 99 101
52 54 55 54 52 49 48 47 46 46 47 48 49 49 50 50 50 50 50 49 49 49 49 50 50 52 53 54 54 55 57 58 59 60 61 62 63 65 66 67 68 69 71 71 71 71 71 71 71 71 71 71 72 73 74 74 75 76 77 77 78 78 77 77 78 79 80 80 80 81 82 81 78 77 79 81 83 84 84 84 85 87 89 92 95
47 49 50 51 49 47 45 45 45 45 46 48 49 50 49 48 48 47 46 47 46 46 45 45 46 47 48 49 51 53 54 55 56 57 58 59 60 61 63 64 65 66 68 68 68 68 68 67 67 67 68 68 69 69 70 71 72 73 74 74 74 73 73 72 73 74 76 77 76 76 79 80 77 76 77 79 79 78 78 78 78 80 82 85 88
46 47 47 48 47 44 42 41 42 43 45 46 47 48 47 46 44 43 42 42 43 42 42 42 42 42 43 44 46 48 50 51 53 54 56 57 58 59 60 61 61 62 64 65 65 64 64 64 64 64 65 65 65 65 66 68 69 70 70 71 70 69 69 68 68 70 72 73 73 73 76 77 75 74 76 77 75 74 73 74 75 76 77 80 83
47 48 48 48 47 45 42 41 40 41 42 43 43 44 43 42 41 39 38 37 38 39 40 40 40 40 41 42 44 46 47 49 51 52 53 54 55 56 57 57 58 59 60 61 61 61 61 61 61 62 62 61 61 61 63 65 66 67 67 67 67 67 67 66 65 67 68 69 69 70 73 74 73 72 73 73 72 71 70 71 72 72 74 77 80
47 48 49 49 48 46 45 43 41 40 39 40 40 40 40 40 38 36 35 34 35 37 38 39 40 39 40 42 43 45 46 48 50 51 51 52 53 54 54 54 54 55 56 57 57 57 57 57 58 59 58 58 58 59 61 61 62 64 64 64 65 65 66 65 63 64 65 66 66 67 70 71 70 69 70 70 69 68 68 69 69 70 73 75 78
46 46 48 48 47 46 45 44 43 41 39 38 39 39 39 38 37 36 34 33 34 35 37 38 39 39 39 41 42 44 46 48 49 49 50 50 52 53 52 52 52 53 53 53 53 53 53 53 54 54 53 54 55 56 57 57 57 59 61 61 62 64 64 63 62 62 62 63 64 65 68 68 66 66 66 66 66 66 66 66 66 68 71 73 74
46 45 45 45 46 46 45 44 43 42 40 39 39 39 38 37 36 36 35 34 34 35 36 37 38 38 38 39 40 43 45 46 47 48 48 50 51 52 51 50 51 51 51 50 50 50 50 50 51 50 49 49 52 54 54 53 53 54 56 57 59 60 60 59 59 59 59 60 61 63 65 65 64 63 63 62 63 63 64 63 64 66 68 69 69
46 45 44 44 44 45 44 43 42 40 40 39 39 39 38 36 35 35 35 35 35 35 36 37 36 36 37 38 39 41 43 44 45 46 47 48 50 51 50 50 50 50 50 50 49 49 49 48 48 48 46 46 48 49 50 51 52 52 52 53 54 55 54 54 55 56 56 57 58 60 63 62 61 61 60 59 60 61 61 61 61 63 64 65 65
47 46 44 43 43 43 42 41 40 39 38 38 38 38 37 36 35 35 35 36 36 36 36 36 36 35 36 38 39 40 41 42 44 44 45 46 47 47 47 48 49 49 50 50 49 48 48 46 45 45 44 43 43 44 44 47 50 50 50 50 50 50 50 50 51 53 54 54 55 58 60 59 58 57 57 57 57 58 58 58 58 59 60 61 61
48 46 45 44 43 43 42 41 39 38 37 37 36 36 36 35 34 35 36 36 37 36 35 35 35 35 36 38 39 40 41 42 43 43 43 43 43 44 45 46 47 47 48 48 47 47 46 44 43 42 42 40 39 39 40 42 45 47 47 47 46 46 47 47 49 51 52 53 54 57 56 55 55 55 54 55 55 54 55 55 55 56 57 59 59
47 45 44 44 42 41 41 40 39 38 37 36 35 34 35 34 33 33 34 35 35 35 34 33 34 35 36 37 38 39 41 41 42 42 42 42 42 42 43 44 45 45 46 46 45 45 43 42 40 39 39 38 36 36 37 38 40 43 44 44 44 44 44 46 48 49 51 52 53 55 54 52 53 53 53 53 52 51 52 53 54 54 55 57 58
46 44 41 41 40 38 37 37 37 37 36 35 34 33 33 33 33 33 33 33 33 33 32 32 34 35 35 35 37 39 40 40 39 39 40 40 40 41 41 42 43 44 44 44 43 42 41 39 37 36 36 35 35 34 34 35 36 39 41 42 43 44 44 46 47 48 50 50 51 53 52 51 52 52 52 51 49 49 52 52 52 53 53 55 56
46 44 41 39 39 38 36 35 36 36 35 35 33 32 32 32 32 32 32 32 32 32 31 32 33 33 34 35 36 38 39 39 38 37 38 39 40 40 40 41 42 42 42 42 41 41 40 38 36 35 35 34 33 33 34 33 35 37 39 41 43 44 45 45 46 47 47 47 49 51 51 50 51 51 50 49 48 49 51 51 51 51 51 52 54
47 45 42 39 38 38 37 36 36 36 35 34 33 32 31 31 31 31 31 31 30 30 30 30 30 30 31 33 35 36 37 37 37 37 37 38 39 39 39 40 40 40 40 40 39 39 38 37 34 33 33 33 32 33 34 34 34 36 38 41 44 45 45 45 45 46 46 46 47 48 49 49 50 49 48 48 48 48 49 49 49 48 47 48 50
48 46 44 40 37 37 38 39 39 38 36 35 34 32 31 31 31 30 30 29 29 29 29 28 28 28 30 32 34 34 35 36 36 36 37 37 38 38 38 38 38 38 38 37 37 36 35 34 33 31 32 32 32 32 34 34 34 35 39 42 44 45 45 45 45 44 44 44 45 46 48 48 48 48 47 47 48 48 48 48 46 43 42 45 48
46 43 43 41 38 36 36 37 39 39 38 37 35 34 32 31 31 30 29 29 29 29 28 28 27 28 30 31 32 33 34 35 35 36 36 36 37 36 35 35 35 35 35 33 32 32 32 31 31 30 30 31 31 31 32 32 33 34 38 41 42 43 43 43 42 41 42 43 43 46 47 47 47 46 45 46 48 48 45 44 41 40 42 46 49
47 43 41 42 41 39 37 36 37 37 36 36 35 33 32 31 31 30 29 29 29 29 28 27 28 29 30 31 31 32 33 34 34 34 34 34 34 33 32 32 31 31 30 29 28 28 28 29 29 28 29 29 30 30 30 31 31 33 35 37 38 40 40 40 39 40 41 42 43 45 46 45 44 44 45 46 46 45 42 41 40 41 44 47 47
50 45 43 42 42 40 38 37 36 36 35 35 35 33 32 32 31 30 29 29 29 29 29 28 28 29 29 30 30 31 31 31 31 32 32 32 31 30 29 28 27 26 25 25 25 26 26 27 27 27 27 27 28 29 29 29 30 31 32 33 35 36 37 38 38 39 40 41 43 44 43 42 42 42 43 43 43 43 41 40 41 42 44 45 45
52 48 45 43 42 40 38 36 35 36 36 36 35 34 33 32 31 30 29 28 28 28 29 28 28 28 28 28 28 29 29 29 29 30 30 29 28 27 25 24 23 22 22 23 23 24 24 25 25 25 25 26 26 27 27 28 29 30 31 31 32 33 35 36 37 38 39 41 42 41 41 40 40 40 40 41 42 42 40 38 40 42 44 45 46
54 51 48 44 41 39 37 36 34 34 35 35 35 34 33 32 31 30 29 27 27 28 28 27 27 26 26 26 27 27 27 27 28 27 27 26 25 24 23 21 20 20 20 20 21 21 22 22 22 23 24 24 25 26 26 27 28 29 29 30 31 32 33 35 37 38 39 39 40 39 39 38 38 39 40 40 41 39 37 38 41 43 43 44 44
55 52 50 47 45 42 39 38 36 35 34 33 34 34 33 31 30 30 28 27 27 27 27 26 26 25 25 25 25 26 26 26 26 25 24 23 23 22 21 20 19 18 17 17 18 18 19 19 20 21 22 23 24 24 25 26 26 27 28 29 29 31 32 34 35 36 37 37 38 38 37 37 37 38 38 38 39 39 39 41 42 42 42 42 41
54 52 50 49 47 45 42 40 38 36 34 32 32 32 32 31 29 29 28 27 27 26 26 25 25 25 25 25 25 25 25 24 24 23 22 21 21 20 19 17 16 15 15 15 16 17 17 18 18 20 21 22 23 23 24 24 25 25 26 27 28 29 30 32 33 34 35 36 36 36 36 36 36 37 37 38 39 40 40 40 39 39 39 39 39
53 51 50 49 48 46 44 41 38 36 34 32 30 31 31 30 28 28 27 27 27 27 26 25 25 25 25 24 25 24 23 23 22 20 19 19 18 17 16 15 14 14 15 15 15 16 16 16 17 18 20 21 22 22 22 23 23 24 25 26 26 28 29 31 32 34 34 35 35 35 35 35 36 37 38 38 39 38 38 38 38 38 37 37 38
52 51 50 49 49 47 44 42 40 38 35 33 31 31 30 29 28 27 27 27 27 27 25 25 25 25 24 24 23 23 21 21 20 18 17 16 15 14 13 14 14 15 15 15 15 15 15 15 16 17 18 19 20 21 21 21 22 22 23 24 25 27 29 30 31 33 33 34 34 34 35 36 36 37 37 37 37 37 37 36 36 36 36 36 37
53 52 51 50 49 47 45 44 42 40 38 35 33 32 31 30 28 27 27 27 27 25 24 24 24 24 23 23 21 20 19 18 17 16 15 13 12 12 13 14 14 14 14 14 13 14 14 14 15 15 16 17 18 19 19 20 20 21 22 23 24 25 27 28 30 31 32 33 34 34 35 36 36 36 36 36 35 35 35 34 34 34 35 36 37
54 53 51 50 49 48 46 44 43 41 39 36 34 33 32 31 29 28 27 27 26 24 23 23 24 23 22 21 19 18 17 16 15 15 13 11 11 12 13 13 13 13 12 11 11 11 11 11 12 13 14 15 16 17 17 18 19 19 20 21 22 24 25 27 29 30 31 32 33 33 33 33 33 33 33 33 33 33 33 33 33 34 34 34 34
Wind_Direction
281 280 280 279 278 277 277 276 275 274 273 272 271 271 270 270 269 269 268 268 267 266 266 265 265 265 265 265 265 265 265 265 265 265 265 265 265 265 265 265 265 265 265 265 265 265 265 265 265 265 265 265 265 265 265 265 265 265 265 265 265 265 265 264 264 264 264 263 263 263 262 262 262 261 261 261 261 260 259 259 258 258 257 257 257
283 282 282 282 281 280 280 279 277 276 275 274 273 272 271 270 270 270 269 269 269 268 268 267 266 265 265 265 265 264 264 263 264 264 264 264 264 264 264 264 264 264 264 264 264 264 264 264 265 265 265 265 265 265 265 265 266 266 266 265 265 264 264 264 264 264 263 263 262 262 262 262 262 262 262 261 261 260 259 259 258 258 258 258 258
284 284 284 284 283 283 282 281 281 280 279 277 276 274 272 271 270 269 269 268 268 268 268 267 267 266 266 266 265 265 264 263 262 262 262 262 262 262 262 262 262 262 263 262 262 263 263 263 263 263 263 264 264 264 264 265 265 265 265 264 264 264 263 263 263 263 263 262 262 262 262 261 261 261 261 261 260 259 259 259 258 258 258 258 258
285 286 285 285 284 284 284 283 283 282 281 280 278 276 275 273 271 269 268 267 267 266 266 265 265 265 264 264 264 264 264 264 263 262 262 261 261 261 261 261 261 261 261 261 261 261 261 262 262 262 262 262 262 262 262 263 263 263 263 263 263 263 263 263 263 262 262 262 262 261 260 260 260 260 260 260 259 259 259 259 259 259 259 259 258
286 286 285 285 284 284 284 283 283 283 282 281 280 278 276 274 272 270 268 266 265 265 264 264 264 263 263 262 261 261 261 262 262 262 262 261 261 260 260 260 260 260 260 260 260 260 260 260 261 262 262 261 261 261 261 261 261 261 262 262 262 262 262 262 262 262 261 261 261 260 260 260 260 259 260 260 260 260 260 260 260 259 259 259 259
288 288 287 286 285 285 284 284 283 283 282 281 279 278 276 274 272 270 268 266 265 264 263 262 262 262 262 261 261 260 259 259 260 260 261 261 260 260 260 260 260 260 260 260 259 259 258 258 259 260 261 261 261 261 261 261 261 261 261 261 261 261 261 260 261 261 260 260 260 260 260 259 259 259 259 260 259 260 260 260 260 259 259 259 259
289 290 290 289 288 287 286 285 284 283 281 279 278 276 275 273 271 269 267 266 264 263 262 261 260 260 260 260 260 259 258 258 258 258 259 259 259 259 259 259 259 259 259 260 260 260 259 258 258 258 259 259 260 260 260 260 260 261 261 261 261 261 261 260 260 260 260 260 260 260 260 259 259 259 259 259 259 259 259 259 259 259 259 259 259
290 290 289 289 288 287 286 285 284 283 281 279 278 276 274 273 271 270 268 266 264 263 261 260 258 258 258 258 259 259 258 257 256 256 257 257 257 258 258 258 258 258 258 259 259 259 259 259 259 258 259 259 259 260 260 259 259 259 260 260 261 261 261 260 260 259 260 259 259 259 259 259 259 259 259 259 259 259 259 258 258 258 259 259 259
289 289 288 287 286 285 283 283 282 281 280 279 277 276 274 273 272 271 270 268 266 264 263 261 259 257 256 256 257 257 258 258 257 256 255 255 256 256 256 256 256 257 257 257 258 258 258 258 258 258 258 259 259 260 260 259 259 259 259 259 260 260 260 261 260 260 260 260 259 259 259 259 259 259 259 259 259 258 258 258 258 258 259 259 259
289 288 287 285 284 282 281 280 278 277 277 276 276 276 275 274 273 273 272 271 270 268 266 264 262 260 257 255 255 255 256 257 257 257 256 255 255 255 255 255 255 255 256 256 256 257 256 257 257 257 257 257 258 258 259 259 259 258 258 258 259 259 259 260 260 260 260 260 260 260 259 259 259 258 258 258 258 258 258 259 259 259 259 259 259
289 287 286 284 282 280 279 277 276 275 274 274 275 275 275 275 274 274 273 273 272 271 269 267 265 263 261 258 256 255 254 255 255 256 257 256 256 255 254 254 254 254 254 255 256 256 255 255 256 256 256 257 257 257 257 258 257 257 257 257 258 258 258 259 259 259 260 260 260 260 260 259 259 259 258 258 258 258 259 259 259 259 259 259 259
290 289 286 282 279 278 277 276 275 275 274 274 274 275 275 274 274 273 273 273 272 272 271 270 269 267 265 263 260 258 256 255 254 255 255 256 256 256 256 255 254 254 254 254 254 255 254 254 255 255 256 256 256 256 256 257 257 256 256 256 256 256 257 257 258 258 259 259 260 260 260 260 260 259 259 258 258 258 259 259 259 260 260 260 259
291 289 285 282 280 278 277 275 275 274 275 275 274 274 274 274 274 273 272 272 272 272 272 271 270 269 268 267 265 262 260 258 256 256 256 256 256 256 256 256 256 256 255 254 254 254 254 254 254 255 255 255 256 256 256 256 256 256 256 255 255 255 255 256 256 256 257 258 258 259 259 260 260 260 259 259 259 259 259 259 259 260 260 260 260
290 286 284 282 281 280 278 276 275 274 274 274 274 275 275 275 274 273 272 271 271 272 271 271 270 270 269 268 267 265 263 261 260 259 258 258 258 257 257 257 257 257 256 256 255 254 254 254 253 254 255 255 255 256 256 255 255 256 255 255 254 254 254 254 254 254 254 255 256 257 257 258 258 259 259 259 259 259 259 259 259 260 260 261 261
289 286 284 283 282 281 279 278 277 275 274 273 273 273 274 274 274 274 273 271 271 271 271 271 271 271 270 269 268 267 266 265 263 262 261 260 260 259 259 258 258 257 257 257 256 255 255 254 254 254 254 255 255 255 255 255 255 255 255 254 254 254 253 253 253 252 252 253 253 254 255 256 257 257 258 258 258 258 258 259 259 259 260 260 261
290 288 287 287 286 285 283 282 281 279 277 275 273 272 271 271 272 272 272 272 271 271 270 271 271 271 271 271 270 269 268 267 266 265 263 262 261 260 259 259 258 258 257 257 257 257 256 255 255 255 255 255 255 255 255 255 255 255 254 254 254 253 253 252 252 251 251 251 252 253 254 254 255 256 257 257 257 258 258 258 258 258 259 259 260
292 291 290 289 288 288 287 287 286 284 282 279 276 273 271 270 270 270 270 270 271 271 270 270 270 270 271 271 271 271 270 269 268 267 266 264 262 261 260 259 259 258 258 257 258 258 257 257 257 256 256 255 255 255 256 255 255 254 254 254 253 253 253 252 252 251 251 251 251 251 252 253 254 255 255 256 256 257 257 257 257 258 258 259 259
293 292 292 291 290 290 290 289 288 286 284 281 279 277 275 273 271 271 270 270 269 270 270 270 270 270 270 270 270 271 271 270 270 269 267 266 264 263 261 260 259 259 259 259 259 259 259 259 258 258 257 257 256 255 255 255 255 254 253 253 253 252 252 252 252 251 251 250 250 251 251 251 252 253 254 254 255 256 256 257 257 257 257 258 258
295 294 293 293 293 293 293 292 290 289 286 284 282 280 278 276 274 273 272 271 270 269 269 269 269 269 269 269 269 270 270 270 269 268 267 267 266 265 263 262 261 260 259 259 259 260 260 260 259 258 258 257 257 255 254 254 254 254 253 253 252 252 252 252 252 251 251 250 250 250 251 251 251 252 253 253 254 255 256 256 257 257 257 257 258
298 297 295 295 295 295 295 294 292 291 289 286 284 282 281 279 278 276 274 273 272 271 270 269 268 268 268 268 268 268 269 269 269 268 267 266 266 266 266 265 264 263 262 261 260 259 259 259 258 258 257 257 257 256 255 253 253 253 253 253 252 252 252 252 251 251 251 251 250 250 251 251 251 251 252 253 254 254 255 256 257 257 257 257 257
300 299 298 298 298 298 297 295 293 292 289 287 286 284 283 282 280 279 277 275 274 273 272 270 269 268 268 268 268 267 267 268 268 268 268 267 266 266 266 266 266 266 265 264 263 262 261 260 259 258 258 257 257 257 256 255 254 253 253 253 253 253 252 252 252 251 252 252 252 251 251 251 251 251 252 253 254 254 255 256 256 257 257 257 257
301 299 299 300 300 299 298 296 294 292 290 288 286 284 283 281 280 279 278 277 275 274 273 272 271 270 270 269 269 268 268 267 267 267 267 267 267 266 266 265 265 265 265 265 264 264 263 262 262 261 260 259 259 258 257 257 256 255 255 254 254 254 254 254 253 253 252 252 253 252 252 251 252 252 252 253 253 254 254 255 256 256 257 257 257
302 301 300 301 301 300 298 297 295 293 291 289 287 285 284 282 280 279 277 276 276 275 274 273 272 272 272 271 271 270 269 267 266 265 265 265 264 264 264 264 263 263 263 263 262 262 262 262 261 261 261 260 259 259 258 257 257 257 257 256 256 256 256 256 256 256 254 253 253 254 254 254 253 253 254 254 253 253 254 255 256 256 257 257 258
303 303 302 302 302 301 299 298 296 294 292 290 288 287 285 284 282 280 279 277 276 276 275 274 273 273 272 272 272 271 270 269 268 267 265 264 263 262 262 262 262 262 262 261 261 261 260 260 260 259 259 259 258 258 258 257 257 257 257 257 256 256 256 256 257 257 257 257 256 257 257 257 256 254 254 255 254 254 254 254 255 256 257 258 258
304 304 304 304 304 303 301 299 297 295 293 291 289 287 286 285 284 282 281 279 278 277 277 276 276 275 274 273 272 272 271 270 269 268 267 266 264 264 263 263 262 262 262 261 261 260 260 260 259 259 258 258 257 257 257 257 257 257 257 257 257 256 256 256 257 257 258 258 258 259 260 259 257 256 254 254 254 254 254 254 254 255 257 257 258
306 306 305 305 306 305 303 301 299 297 295 293 291 289 287 286 285 284 283 281 279 277 276 276 276 275 275 275 274 273 272 271 270 269 268 267 266 266 265 265 264 264 263 263 262 262 261 260 259 258 257 257 256 256 257 257 257 256 257 256 256 256 256 256 256 257 257 258 258 258 259 259 258 257 256 255 255 255 255 255 255 255 255 256 257
309 308 307 306 306 305 304 302 300 298 296 294 293 291 290 289 288 287 286 285 283 280 278 277 276 275 275 275 275 274 274 273 273 271 270 269 268 267 266 265 265 265 265 265 264 263 263 262 260 259 258 257 256 256 257 257 257 256 256 256 256 256 256 256 256 256 257 257 257 257 258 259 259 258 257 257 257 257 257 257 256 255 255 255 255
315 312 310 308 307 307 305 302 300 298 295 294 292 291 291 290 290 290 290 289 288 286 284 282 280 279 278 277 276 275 275 275 274 273 272 270 269 268 268 267 267 266 266 266 266 265 265 264 263 261 260 259 258 257 257 257 257 257 257 257 257 257 257 256 256 256 256 257 257 257 258 259 259 259 259 259 259 259 258 258 257 256 256 255 255
320 317 314 312 311 311 309 307 303 300 297 294 292 290 290 290 291 291 292 291 291 290 288 287 285 284 283 282 280 278 277 276 275 273 273 272 271 271 270 269 269 268 268 267 267 267 267 266 265 264 263 261 260 258 256 256 256 257 257 257 258 257 257 256 255 255 255 256 256 256 257 258 259 259 259 259 260 260 259 259 257 257 256 255 254
323 321 318 316 315 314 313 312 309 305 301 297 294 292 291 291 292 292 292 292 292 291 290 289 288 288 287 285 284 282 280 278 277 276 275 275 274 273 272 271 271 269 268 268 267 267 266 266 265 264 263 262 260 258 256 255 255 255 256 256 256 256 256 256 254 254 254 255 255 255 256 257 258 258 258 259 259 259 259 258 257 256 255 254 254
326 322 319 317 316 315 315 314 312 309 304 300 297 296 295 294 294 293 293 292 291 291 290 289 289 289 288 286 285 284 282 280 279 279 279 278 276 275 274 274 273 272 271 270 269 268 267 265 264 263 262 262 261 259 258 256 254 254 253 253 253 253 254 254 254 253 253 253 253 254 254 255 256 256 257 257 258 258 257 256 256 255 255 254 254
327 323 320 318 317 316 316 315 313 310 307 303 301 300 299 298 297 296 294 292 290 289 289 289 289 289 288 287 285 283 281 280 280 280 279 278 277 277 277 277 275 274 273 272 270 269 268 267 266 265 263 263 262 261 261 259 256 253 252 251 250 250 251 251 250 250 250 250 251 252 253 254 254 255 255 255 255 255 255 255 254 254 254 254 254
329 326 323 321 319 318 317 316 313 310 307 305 304 303 303 302 300 297 294 292 290 289 289 289 289 289 288 287 284 282 281 280 279 278 278 277 277 278 278 278 277 276 275 274 272 271 270 269 268 267 266 264 262 262 261 261 258 255 252 250 249 248 247 247 247 247 247 246 247 249 251 252 253 253 253 253 253 254 254 253 252 253 253 253 252
330 328 326 323 321 319 318 316 314 312 309 307 306 305 305 305 303 299 297 294 292 292 291 291 291 290 288 286 284 283 282 281 280 279 279 278 277 278 277 276 276 275 274 273 273 272 271 271 270 270 268 266 262 260 259 257 257 255 253 250 248 246 245 244 244 244 245 245 245 246 248 249 251 251 252 252 252 252 252 252 251 251 251 251 251
333 330 329 326 324 323 321 320 318 316 314 312 310 309 308 307 305 302 300 299 297 296 296 295 294 292 289 288 287 287 285 284 283 283 282 281 280 279 277 276 275 274 274 273 273 273 273 272 272 271 269 266 262 258 254 251 251 252 251 249 246 244 242 241 241 241 243 243 244 245 246 247 248 249 249 250 250 250 251 251 250 250 250 250 250
335 333 331 329 327 326 324 322 322 321 320 319 318 317 315 313 311 308 305 303 302 301 300 297 294 291 289 289 288 288 287 286 285 284 283 282 281 279 278 277 276 275 275 275 275 275 275 275 274 272 269 266 261 255 250 246 245 246 247 246 244 240 237 236 237 238 240 241 242 244 245 245 246 247 248 249 249 250 250 250 249 249 248 249 249
338 336 334 331 329 328 326 324 323 323 322 322 323 323 321 319 317 315 312 310 308 307 304 299 294 292 291 291 289 288 287 287 286 285 284 283 281 281 280 279 279 278 277 277 277 277 277 276 275 273 270 266 262 257 251 245 242 241 242 243 242 238 234 233 234 236 238 240 242 244 245 245 246 247 248 248 248 249 249 249 248 248 247 247 247
341 338 337 335 331 330 330 328 326 325 324 323 324 325 324 323 321 320 318 316 313 310 305 300 296 295 294 292 290 289 288 288 288 286 285 284 283 283 282 282 281 280 279 279 279 279 278 276 275 274 272 269 265 261 256 247 240 237 237 238 239 238 235 234 235 236 237 240 242 245 246 246 246 247 248 249 248 248 248 247 247 247 246 246 246
344 341 340 340 336 334 333 332 329 327 325 324 324 326 326 325 324 323 322 319 315 311 306 302 300 297 295 292 291 290 290 290 289 288 286 285 285 284 284 283 283 282 281 281 280 279 278 276 275 273 271 269 265 261 256 249 241 236 233 234 236 236 235 235 236 237 238 240 243 245 246 246 247 247 248 249 249 247 246 246 245 245 245 246 246
346 343 341 341 341 339 337 334 331 329 327 325 326 328 329 328 327 326 324 320 316 312 309 307 305 301 297 293 292 291 291 290 289 288 287 285 284 284 283 283 283 282 281 280 278 277 275 274 273 271 268 266 263 259 256 251 245 238 235 235 236 236 236 236 237 238 240 242 244 246 247 247 248 249 249 250 250 247 245 244 244 244 244 245 246
348 345 341 341 343 343 340 335 331 329 328 327 328 330 331 330 329 328 325 321 318 315 312 310 307 303 298 295 293 292 291 289 288 287 286 284 284 284 283 283 282 281 279 277 275 274 272 271 270 267 265 264 262 260 257 254 249 243 240 239 239 239 240 240 240 241 243 243 245 246 248 248 249 250 250 250 250 248 246 245 244 242 242 243 244
349 347 345 344 345 345 342 337 333 330 328 328 329 331 333 332 331 328 325 322 320 316 313 310 306 302 299 298 296 293 291 289 288 287 285 284 284 285 285 283 282 280 278 276 274 272 270 269 268 266 265 264 264 262 260 257 254 250 246 244 243 243 243 243 243 244 244 245 245 246 248 248 249 249 248 248 248 248 247 245 243 241 241 243 244
349 350 350 349 348 346 344 339 335 333 331 331 331 334 335 334 331 330 327 325 322 317 312 310 307 305 303 301 298 294 293 292 290 288 287 286 287 287 286 284 282 280 278 276 274 272 270 269 268 266 265 265 264 264 262 260 258 256 254 251 249 248 248 247 247 247 247 247 247 248 249 249 248 247 247 246 246 245 243 241 241 240 240 241 242
349 352 353 352 350 347 344 341 338 336 336 335 335 336 336 334 332 331 330 327 322 317 314 312 311 310 308 304 300 298 296 294 292 290 290 290 291 291 289 288 285 282 279 276 274 271 270 268 267 267 266 265 264 263 262 261 259 258 256 255 253 253 252 252 251 250 250 250 250 250 250 248 246 245 244 244 244 244 242 241 240 240 239 240 241
350 352 352 352 350 348 346 343 341 341 340 338 336 335 335 334 333 333 333 329 323 318 317 317 316 314 311 308 305 303 300 297 295 294 294 295 295 295 294 293 289 284 278 274 271 270 269 269 270 270 269 267 266 263 261 259 257 256 255 254 254 254 254 253 253 252 252 251 251 250 249 246 244 242 241 241 242 241 240 238 237 238 239 240 242
350 351 351 351 350 350 349 347 344 344 343 340 337 335 334 334 335 335 334 330 324 321 321 321 319 317 315 312 310 307 304 301 300 299 299 300 299 298 297 293 288 283 279 276 275 275 275 275 274 273 271 269 267 263 260 258 256 254 252 252 252 252 252 252 252 252 251 249 248 247 245 243 241 240 238 237 237 235 234 234 236 238 239 240 240
350 350 351 351 350 350 350 348 346 344 343 342 339 334 333 335 338 338 335 330 325 325 326 325 321 319 318 316 314 311 308 305 303 304 304 303 301 298 295 291 289 288 287 287 285 282 280 279 278 276 273 271 268 266 263 261 257 254 251 249 248 248 248 247 247 246 245 244 243 242 241 239 238 237 235 234 234 234 233 234 235 236 236 236 236
349 350 351 351 351 350 350 349 347 345 344 343 340 335 333 336 341 340 335 330 328 330 331 327 322 321 320 318 316 314 310 307 307 308 307 303 300 297 296 297 299 299 295 292 288 285 283 281 279 276 273 271 269 268 266 264 261 256 252 248 245 243 241 241 241 241 240 240 240 239 237 236 234 233 233 233 233 233 232 232 231 231 231 231 232
350 351 351 351 351 350 350 349 348 346 345 344 341 337 335 339 343 341 335 331 332 335 334 328 323 322 322 321 319 315 312 310 310 310 308 304 302 303 307 309 308 302 297 293 290 288 286 283 278 274 272 270 268 268 266 264 262 258 253 247 243 240 238 238 238 239 239 239 238 236 235 233 232 232 232 232 231 230 229 228 228 228 228 229 230
352 352 352 351 351 351 350 350 348 347 346 345 343 339 338 341 344 340 334 334 337 338 333 327 324 324 324 323 322 318 315 314 313 311 309 307 310 315 316 312 307 301 296 294 292 290 287 284 281 277 273 269 267 266 264 261 259 257 252 248 244 241 239 238 237 237 236 235 234 234 233 232 232 231 230 230 228 227 226 226 226 226 227 228 230
352 352 352 352 352 351 351 350 349 348 347 347 345 341 340 343 343 338 335 339 342 340 333 328 327 327 327 327 325 322 319 317 316 314 314 318 322 321 316 309 303 297 293 292 291 288 284 281 277 273 270 267 264 262 261 258 255 253 250 246 243 240 238 237 236 235 234 234 233 233 232 232 231 230 229 227 226 225 224 224 225 227 229 231 233